Flag for Norway Weather past 2 weeks in Finse, Norway

Now
32 °F

Chilly.


Feels Like: 25 °F
Forecast: 17 / 31 °F
Wind: 8 mph from Southwest

Location: Finsevatn

Current Time: Jan 26, 2015 at 1:34:37 AM

Latest Report: Jan 26, 2015 at 12:00 AM


Visibility: N/A

Pressure: 29.76 "Hg

Humidity: 88%

Dew point: 29 °F

Location of FinseLocation

Historic Weather in Finse — Graph

°F

Finse temperature yesterday

Maximum temperature yesterday: 32 °F (at 7:00 PM)
Minimum temperature yesterday: 18 °F (at 2:00 AM)
Average temperature yesterday: 24 °F

Past Weeks' High & Low Weather Summary

 TemperatureHumidityPressure
High32 °F (Jan 25, 7:00 PM)97% (Jan 12, 9:00 AM)30.56 "Hg (Jan 12, 9:00 AM)
Low-16 °F (Jan 22, 9:00 PM)79% (Jan 22, 9:00 PM)28.67 "Hg (Jan 11, 12:00 AM)
Average18 °F91%29.57 "Hg
* Reported Midnight between Jan 10 and Jan 11 — Midnight between Jan 25 and Jan 26, Finse, Weather by CustomWeather, © 2014

Note: Actual official high and low records may vary slightly from our data, if they occured in-between our weather recording intervals... More about our weather records

Advertising

Finse weather history for previous 24 hours

 ConditionsComfort  
Time TempWeatherWind HumidityBarometerVisibility
12:00 AM
Jan 26
32 °FChilly.8 mph88%29.76 "HgN/A
11:00 PM
Jan 25
29 °FChilly.5 mph94%29.81 "HgN/A
9:00 PM30 °FChilly.10 mph90%29.84 "HgN/A
8:00 PM30 °FChilly.10 mph91%29.88 "HgN/A
7:00 PM32 °FChilly.3 mph84%29.89 "HgN/A
6:00 PM30 °FChilly.3 mph86%29.94 "HgN/A
5:00 PM28 °FChilly.3 mph86%29.96 "HgN/A
4:00 PM29 °FChilly.7 mph87%29.97 "HgN/A
3:00 PM25 °FChilly.5 mph87%30.02 "HgN/A
2:00 PM25 °FChilly.2 mph83%30.03 "HgN/A
1:00 PM24 °FCold.5 mph84%30.06 "HgN/A
12:00 PM23 °FCold.1 mph84%30.07 "HgN/A
11:00 AM22 °FCold.2 mph89%30.08 "HgN/A
10:00 AM22 °FCold.6 mph89%30.07 "HgN/A
9:00 AM22 °FCold.8 mph89%30.07 "HgN/A
8:00 AM22 °FCold.5 mph89%30.05 "HgN/A
7:00 AM22 °FCold.6 mph89%30.03 "HgN/A
6:00 AM21 °FCold.7 mph90%30.03 "HgN/A
5:00 AM19 °FCold.2 mph91%30.03 "HgN/A
4:00 AM20 °FCold.2 mph92%30.02 "HgN/A
3:00 AM20 °FCold.7 mph88%30.01 "HgN/A
2:00 AM18 °FCold.8 mph88%30.00 "HgN/A
1:00 AM20 °FCold.7 mph91%29.96 "HgN/A
Weather by CustomWeather, © 2014

See weather overviewHow to use our weather pages